This demonstration page uses our WeatherBlox Daily Observations layout. Learn more.

Left ArrowRight Arrow

Hourly Observations for June 26, 2018

Temp ( °F °C ) Dew Point ( °F °C ) Humidity (%) Winds ( mph kmh ) Pressure ( in mb ) Visibility ( mi km ) Precip ( " mm )
12:54 am 00:54 Clear 65 18.3 62 16.7 90 90 SSW 6 9 29.80 1009 10 16 0.00 0.00
1:54 am 01:54 Clear 65 18.3 62 16.7 90 90 SW 7 11 29.80 1009 10 16 0.00 0.00
2:54 am 02:54 Clear 65 18.3 61 16.1 87 87 WSW 8 13 29.80 1009 10 16 0.00 0.00
3:54 am 03:54 Mostly Clear 64 17.8 62 16.7 93 93 W 10 17 29.80 1009 10 16 0.00 0.00
4:54 am 04:54 Clear 64 17.8 62 16.7 93 93 WSW 6 9 29.80 1009 10 16 0.00 0.00
5:54 am 05:54 Cloudy 65 18.3 62 16.7 90 90 WSW 6 9 29.80 1009 10 16 0.00 0.00
6:54 am 06:54 Mostly Sunny 65 18.3 62 16.7 90 90 SW 7 11 29.83 1010 10 16 0.00 0.00
7:54 am 07:54 Sunny 68 20 63 17.2 84 84 WSW 9 15 29.83 1010 10 16 0.00 0.00
8:37 am 08:37 Mostly Cloudy 69 20.6 63 17.2 81 81 W 13 20 29.83 1010 10 16 0.00 0.00
8:54 am 08:54 Partly Cloudy 71 21.7 64 17.8 79 79 W 10 17 29.84 1010 10 16 0.00 0.00
9:32 am 09:32 Mostly Cloudy 72 22.2 63 17.2 73 73 WNW 12 19 29.80 1009 10 16 0.00 0.00
9:44 am 09:44 Mostly Cloudy 72 22.2 63 17.2 73 73 WNW 14 22 29.80 1009 10 16 0.00 0.00
9:54 am 09:54 Cloudy 73 22.8 63 17.2 71 71 WNW 14 22 29.83 1010 10 16 0.00 0.00
10:54 am 10:54 Partly Cloudy 74 23.3 63 17.2 69 69 NW 17 28 29.82 1010 10 16 0.00 0.00
11:54 am 11:54 Partly Cloudy 78 25.6 64 17.8 62 62 NW 13 20 29.83 1010 10 16 0.00 0.00
12:54 pm 12:54 Mostly Cloudy 78 25.6 63 17.2 60 60 WNW 10 17 29.85 1011 10 16 0.00 0.00
1:54 pm 13:54 Mostly Cloudy 79 26.1 63 17.2 58 58 VRB 6 9 29.84 1010 10 16 0.00 0.00
2:54 pm 14:54 Partly Cloudy 83 28.3 64 17.8 53 53 NW 7 11 29.82 1010 10 16 0.00 0.00
3:54 pm 15:54 Partly Cloudy 84 28.9 64 17.8 51 51 NW 12 19 29.80 1009 10 16 0.00 0.00
4:54 pm 16:54 Mostly Sunny 84 28.9 65 18.3 53 53 NW 8 13 29.78 1009 10 16 0.00 0.00
5:54 pm 17:54 Mostly Sunny 84 28.9 65 18.3 53 53 WNW 13 20 29.79 1009 10 16 0.00 0.00
6:54 pm 18:54 Sunny 83 28.3 65 18.3 55 55 NNW 10 17 29.79 1009 10 16 0.00 0.00
7:54 pm 19:54 Mostly Sunny 82 27.8 65 18.3 56 56 NNW 7 11 29.81 1010 10 16 0.00 0.00
8:54 pm 20:54 Sunny 78 25.6 65 18.3 64 64 NNW 7 11 29.81 1009 10 16 0.00 0.00
9:54 pm 21:54 Clear 71 21.7 65 18.3 81 81 NE 6 9 29.83 1010 10 16 0.00 0.00
10:54 pm 22:54 Clear 72 22.2 66 18.9 82 82 Calm 29.85 1011 10 16 0.00 0.00
11:54 pm 23:54 Clear with Light Rain 70 21.1 65 18.3 84 84 Calm 29.84 1010 10 16 0.00 0.03

Powered by AerisWeather